Columbia Airport, CA

12:42 AM PST on December 06, 2019 (GMT -0800)
Columbia Airport

Weather History for KO22 - November, 2019

Change the Weather History Date:

Wednesday, November 13, 2019

  Actual Average (KMOD) Record (KMOD)
Temperature  
Mean Temperature 60 °F -  
Max Temperature 77 °F 63 °F 77 °F (1986)
Min Temperature 44 °F 43 °F 27 °F (1938)
Degree Days  
Heating Degree Days 4    
Growing Degree Days 10 (Base 50)    
Moisture  
Dew Point 33 °F    
Average Humidity 42    
Maximum Humidity 61    
Minimum Humidity 17    
Precipitation  
Precipitation 0.00 in - - ()
Sea Level Pressure  
Sea Level Pressure 30.03 in    
Wind  
Wind Speed 0 mph ()    
Max Wind Speed 5 mph    
Max Gust Speed -    
Visibility 10.0 miles    
Events      
Averages and records for this station are not official NWS values.
T = Trace of Precipitation, MM = Missing Value Source: Averaged Metar Reports

Daily Weather History Graph

Daily Weather History Graph

Search for Another Location

Airport or City:

Astronomy

Nov. 13, 2019 Rise Set
Actual Time 6:40 AM PST 4:51 PM PST
Civil Twilight 6:12 AM PST 5:19 PM PST
Nautical Twilight 5:40 AM PST 5:50 PM PST
Astronomical Twilight 5:09 AM PST 6:22 PM PST
Moon 5:58 PM PST (11/13) 7:38 AM PST (11/13)
Length of Visible Light 11h 07m
Length of Day
10h 11m
Full, 98% of the Moon is Illuminated
Nov 13
Full
Nov 19
Last Quarter
Nov 26
New
Dec 3
First Quarter
Dec 11
Full

Hourly Weather History & Observations

Time (PST) Temp. Dew Point Humidity Pressure Visibility Wind Dir Wind Speed Gust Speed Precip Events Conditions
12:15 AM 48.2 °F 33.8 °F 58% 30.07 in 10.0 mi Calm Calm - N/A   Clear
12:55 AM 48.2 °F 33.8 °F 58% 30.06 in 10.0 mi Calm Calm - N/A   Clear
1:55 AM 48.2 °F 33.8 °F 58% 30.05 in 10.0 mi Calm Calm - N/A   Clear
2:15 AM 48.2 °F 32.0 °F 54% 30.05 in 10.0 mi Calm Calm - N/A   Clear
2:35 AM 46.4 °F 32.0 °F 57% 30.05 in 10.0 mi Calm Calm - N/A   Clear
2:55 AM 46.4 °F 32.0 °F 57% 30.05 in 10.0 mi Calm Calm - N/A   Clear
3:15 AM 46.4 °F 32.0 °F 57% 30.05 in 10.0 mi Calm Calm - N/A   Clear
3:35 AM 46.4 °F 32.0 °F 57% 30.05 in 10.0 mi Calm Calm - N/A   Clear
3:55 AM 46.4 °F 32.0 °F 57% 30.05 in 10.0 mi Calm Calm - N/A   Clear
4:15 AM 46.4 °F 32.0 °F 57% 30.05 in 10.0 mi Calm Calm - N/A   Clear
4:35 AM 46.4 °F 32.0 °F 57% 30.05 in 10.0 mi Calm Calm - N/A   Clear
4:55 AM 44.6 °F 32.0 °F 61% 30.05 in 10.0 mi Calm Calm - N/A   Clear
5:15 AM 44.6 °F 32.0 °F 61% 30.04 in 10.0 mi Calm Calm - N/A   Clear
5:35 AM 46.4 °F 30.2 °F 53% 30.04 in 10.0 mi Calm Calm - N/A   Clear
5:55 AM 46.4 °F 30.2 °F 53% 30.04 in 10.0 mi Calm Calm - N/A   Clear
6:15 AM 46.4 °F 30.2 °F 53% 30.04 in 10.0 mi Calm Calm - N/A   Clear
6:35 AM 46.4 °F 30.2 °F 53% 30.04 in 10.0 mi Calm Calm - N/A   Clear
6:55 AM 46.4 °F 30.2 °F 53% 30.05 in 10.0 mi Calm Calm - N/A   Clear
7:15 AM 46.4 °F 32.0 °F 57% 30.06 in 10.0 mi Calm Calm - N/A   Clear
7:35 AM 46.4 °F 32.0 °F 57% 30.06 in 10.0 mi Calm Calm - N/A   Clear
7:55 AM 50.0 °F 33.8 °F 54% 30.07 in 10.0 mi Calm Calm - N/A   Clear
8:35 AM 57.2 °F 35.6 °F 44% 30.07 in 10.0 mi Calm Calm - N/A   Clear
9:15 AM 64.4 °F 37.4 °F 37% 30.06 in 10.0 mi Calm Calm - N/A   Clear
9:35 AM 66.2 °F 39.2 °F 37% 30.06 in 10.0 mi Calm Calm - N/A   Clear
9:55 AM 68.0 °F 37.4 °F 33% 30.06 in 10.0 mi Calm Calm - N/A   Clear
10:15 AM 71.6 °F 32.0 °F 23% 30.06 in 10.0 mi Calm Calm - N/A   Clear
10:35 AM 71.6 °F 26.6 °F 19% 30.05 in 10.0 mi Calm Calm - N/A   Clear
10:55 AM 73.4 °F 30.2 °F 20% 30.05 in 10.0 mi Variable 3.5 mph - N/A   Clear
11:15 AM 75.2 °F 28.4 °F 18% 30.04 in 10.0 mi Variable 3.5 mph - N/A   Clear
11:35 AM 75.2 °F 26.6 °F 17% 30.04 in 10.0 mi Variable 4.6 mph - N/A   Clear
12:15 PM 75.2 °F 26.6 °F 17% 30.02 in 10.0 mi SSW 4.6 mph - N/A   Clear
12:35 PM 77.0 °F 28.4 °F 17% 30.02 in 10.0 mi South 4.6 mph - N/A   Clear
12:55 PM 77.0 °F 30.2 °F 18% 30.01 in 10.0 mi Calm Calm - N/A   Clear
1:15 PM 75.2 °F 28.4 °F 18% 30.01 in 10.0 mi SSW 4.6 mph - N/A   Clear
1:35 PM 73.4 °F 30.2 °F 20% 30.00 in 10.0 mi Calm Calm - N/A   Clear
1:55 PM 73.4 °F 30.2 °F 20% 30.00 in 10.0 mi Variable 3.5 mph - N/A   Clear
2:15 PM 73.4 °F 30.2 °F 20% 30.00 in 10.0 mi Calm Calm - N/A   Clear
2:35 PM 71.6 °F 32.0 °F 23% 30.00 in 10.0 mi WSW 4.6 mph - N/A   Clear
2:55 PM 71.6 °F 32.0 °F 23% 30.00 in 10.0 mi SW 3.5 mph - N/A   Clear
3:35 PM 69.8 °F 33.8 °F 27% 30.01 in 10.0 mi Calm Calm - N/A   Clear
4:15 PM 68.0 °F 33.8 °F 28% 30.00 in 10.0 mi Calm Calm - N/A   Clear
4:35 PM 64.4 °F 37.4 °F 37% 30.00 in 10.0 mi Calm Calm - N/A   Clear
4:55 PM 62.6 °F 37.4 °F 39% 30.00 in 10.0 mi Calm Calm - N/A   Clear
5:15 PM 60.8 °F 37.4 °F 42% 30.00 in 10.0 mi Calm Calm - N/A   Clear
5:35 PM 59.0 °F 37.4 °F 45% 30.00 in 10.0 mi Calm Calm - N/A   Clear
5:55 PM 57.2 °F 37.4 °F 48% 30.01 in 10.0 mi Calm Calm - N/A   Clear
6:35 PM 57.2 °F 35.6 °F 44% 30.01 in 10.0 mi Calm Calm - N/A   Clear
6:55 PM 55.4 °F 35.6 °F 47% 30.00 in 10.0 mi Calm Calm - N/A   Clear
7:15 PM 55.4 °F 35.6 °F 47% 30.00 in 10.0 mi Calm Calm - N/A   Clear
7:35 PM 55.4 °F 33.8 °F 44% 30.01 in 10.0 mi Calm Calm - N/A   Clear
7:55 PM 55.4 °F 33.8 °F 44% 30.00 in 10.0 mi Calm Calm - N/A   Clear
8:15 PM 55.4 °F 33.8 °F 44% 30.01 in 10.0 mi Calm Calm - N/A   Clear
8:35 PM 55.4 °F 33.8 °F 44% 30.02 in 10.0 mi Calm Calm - N/A   Clear
8:55 PM 55.4 °F 33.8 °F 44% 30.02 in 10.0 mi Calm Calm - N/A   Clear
9:15 PM 53.6 °F 33.8 °F 47% 30.03 in 10.0 mi Calm Calm - N/A   Clear
9:35 PM 55.4 °F 33.8 °F 44% 30.03 in 10.0 mi Calm Calm - N/A   Clear
9:55 PM 53.6 °F 33.8 °F 47% 30.03 in 10.0 mi Calm Calm - N/A   Clear
10:35 PM 53.6 °F 33.8 °F 47% 30.02 in 10.0 mi Calm Calm - N/A   Clear
10:55 PM 53.6 °F 33.8 °F 47% 30.02 in 10.0 mi Calm Calm - N/A   Clear
11:15 PM 55.4 °F 33.8 °F 44% 30.02 in 10.0 mi Calm Calm - N/A   Clear
11:35 PM 53.6 °F 33.8 °F 47% 30.02 in 10.0 mi Calm Calm - N/A   Clear
11:55 PM 55.4 °F 32.0 °F 41% 30.01 in 10.0 mi Calm Calm - N/A   Clear